| time (UTC) | temp C | wind direction | speed KPH | gust KPH | rain 1hr cm | rain 24hr cm | rain mn cm | humidity % | barometer mb |
| 20260506014509 | 23 | 133 | 4.8 | 20.9 | 0.00 | 0.00 | 0.00 | 40 | 1010.1 |
| 20260506013009 | 23 | 194 | 8.0 | 29.0 | 0.00 | 0.00 | 0.00 | 39 | 1010.0 |
| 20260506011507 | 23 | 267 | 4.8 | 22.5 | 0.00 | 0.00 | 0.00 | 37 | 1009.8 |
| 20260506010008 | 23 | 68 | 4.8 | 17.7 | 0.00 | 0.00 | 0.00 | 36 | 1009.7 |
| 20260506004519 | 23 | 199 | 3.2 | 14.5 | 0.00 | 0.00 | 0.00 | 35 | 1009.5 |
| 20260506003006 | 24 | 139 | 8.0 | 29.0 | 0.00 | 0.00 | 0.00 | 33 | 1009.3 |
| 20260506001505 | 24 | 176 | 9.7 | 19.3 | 0.00 | 0.00 | 0.00 | 31 | 1009.1 |
| 20260506000005 | 25 | 130 | 8.0 | 25.7 | 0.00 | 0.00 | 0.00 | 31 | 1009.1 |
| 20260505234505 | 25 | 190 | 11.3 | 30.6 | 0.00 | 0.00 | 0.00 | 31 | 1009.0 |
| 20260505233004 | 25 | 165 | 4.8 | 17.7 | 0.00 | 0.00 | 0.00 | 32 | 1008.9 |
| 20260505231507 | 25 | 258 | 12.9 | 30.6 | 0.00 | 0.00 | 0.00 | 30 | 1009.0 |
| 20260505230010 | 26 | 175 | 11.3 | 27.4 | 0.00 | 0.00 | 0.00 | 29 | 1009.0 |
| 20260505224500 | 26 | 244 | 14.5 | 29.0 | 0.00 | 0.00 | 0.00 | 27 | 1009.0 |
| 20260505223105 | 26 | 298 | 11.3 | 29.0 | 0.00 | 0.00 | 0.00 | 30 | 1009.1 |
| 20260505223001 | 26 | 194 | 9.7 | 29.0 | 0.00 | 0.00 | 0.00 | 31 | 1009.2 |
| 20260505221603 | 26 | 115 | 9.7 | 32.2 | 0.00 | 0.00 | 0.00 | 31 | 1009.1 |
| 20260505220109 | 26 | 224 | 11.3 | 43.5 | 0.00 | 0.00 | 0.00 | 30 | 1008.9 |
| 20260505214612 | 26 | 143 | 6.4 | 25.7 | 0.00 | 0.00 | 0.00 | 31 | 1009.0 |
| 20260505213058 | 26 | 165 | 11.3 | 30.6 | 0.00 | 0.00 | 0.00 | 31 | 1008.9 |
| 20260505211636 | 27 | 229 | 12.9 | 24.1 | 0.00 | 0.00 | 0.00 | 31 | 1008.7 |
| 20260505210057 | 27 | 153 | 14.5 | 38.6 | 0.00 | 0.00 | 0.00 | 30 | 1008.7 |
| 20260505204604 | 27 | 202 | 12.9 | 30.6 | 0.00 | 0.00 | 0.00 | 31 | 1008.9 |
| 20260505203057 | 27 | 230 | 11.3 | 37.0 | 0.00 | 0.00 | 0.00 | 28 | 1008.9 |
| 20260505201555 | 28 | 236 | 11.3 | 45.1 | 0.00 | 0.00 | 0.00 | 28 | 1008.8 |
| 20260505200055 | 28 | 240 | 16.1 | 32.2 | 0.00 | 0.00 | 0.00 | 27 | 1008.9 |
| 20260505194553 | 28 | 217 | 14.5 | 25.7 | 0.00 | 0.00 | 0.00 | 29 | 1009.0 |
| 20260505193052 | 28 | 252 | 9.7 | 35.4 | 0.00 | 0.00 | 0.00 | 29 | 1009.2 |
| 20260505191550 | 27 | 197 | 11.3 | 37.0 | 0.00 | 0.00 | 0.00 | 31 | 1009.4 |
| 20260505190052 | 28 | 158 | 11.3 | 29.0 | 0.00 | 0.00 | 0.00 | 29 | 1009.6 |
| 20260505184546 | 28 | 157 | 8.0 | 32.2 | 0.00 | 0.00 | 0.00 | 32 | 1009.8 |
| 20260505183045 | 28 | 146 | 11.3 | 22.5 | 0.00 | 0.00 | 0.00 | 34 | 1009.9 |
| 20260505181604 | 27 | 153 | 12.9 | 32.2 | 0.00 | 0.00 | 0.00 | 33 | 1010.2 |
| 20260505180047 | 27 | 184 | 14.5 | 32.2 | 0.00 | 0.00 | 0.00 | 33 | 1010.5 |
| 20260505174540 | 27 | 219 | 8.0 | 24.1 | 0.00 | 0.00 | 0.00 | 35 | 1010.6 |
| 20260505173036 | 27 | 244 | 9.7 | 27.4 | 0.00 | 0.00 | 0.00 | 32 | 1010.7 |
| 20260505171539 | 27 | 155 | 6.4 | 25.7 | 0.00 | 0.00 | 0.00 | 35 | 1010.9 |
| 20260505170032 | 26 | 232 | 6.4 | 25.7 | 0.00 | 0.00 | 0.00 | 36 | 1011.0 |
| 20260505164533 | 26 | 182 | 9.7 | 16.1 | 0.00 | 0.00 | 0.00 | 36 | 1011.2 |
| 20260505163030 | 26 | 248 | 4.8 | 22.5 | 0.00 | 0.00 | 0.00 | 38 | 1011.4 |
| 20260505161527 | 26 | 270 | 14.5 | 29.0 | 0.00 | 0.00 | 0.00 | 37 | 1011.8 |
| 20260505153032 | 25 | 177 | 9.7 | 17.7 | 0.00 | 0.00 | 0.00 | 42 | 1012.1 |
| 20260505151515 | 24 | 134 | 8.0 | 17.7 | 0.00 | 0.00 | 0.00 | 43 | 1012.0 |
| 20260505140108 | 22 | 273 | 3.2 | 11.3 | 0.00 | 0.00 | 0.00 | 53 | 1012.0 |
| 20260505124537 | 18 | 227 | 4.8 | 14.5 | 0.00 | 0.00 | 0.00 | 55 | 1012.5 |
| 20260505123046 | 17 | 184 | 3.2 | 11.3 | 0.00 | 0.00 | 0.00 | 57 | 1012.5 |
| 20260505121527 | 17 | 252 | 4.8 | 14.5 | 0.00 | 0.00 | 0.00 | 58 | 1012.4 |
| 20260505120022 | 16 | 265 | 6.4 | 14.5 | 0.00 | 0.00 | 0.00 | 59 | 1012.3 |
| 20260505114518 | 16 | 250 | 8.0 | 16.1 | 0.00 | 0.00 | 0.00 | 60 | 1012.3 |
| 20260505113016 | 16 | 273 | 3.2 | 16.1 | 0.00 | 0.00 | 0.00 | 60 | 1012.2 |
| 20260505111515 | 16 | 163 | 9.7 | 22.5 | 0.00 | 0.00 | 0.00 | 60 | 1012.0 |
| 20260505101503 | 15 | 215 | 4.8 | 20.9 | 0.00 | 0.00 | 0.00 | 62 | 1011.2 |
| 20260505100002 | 15 | 274 | 4.8 | 16.1 | 0.00 | 0.00 | 0.00 | 63 | 1011.3 |
| 20260505094559 | 15 | 227 | 4.8 | 16.1 | 0.00 | 0.00 | 0.00 | 63 | 1011.3 |
| 20260505093059 | 15 | 173 | 4.8 | 16.1 | 0.00 | 0.00 | 0.00 | 64 | 1011.1 |
| 20260505091559 | 15 | 210 | 4.8 | 16.1 | 0.00 | 0.00 | 0.00 | 64 | 1011.1 |
| 20260505090058 | 15 | 171 | 4.8 | 14.5 | 0.00 | 0.00 | 0.00 | 64 | 1011.1 |
| 20260505084603 | 15 | 193 | 3.2 | 14.5 | 0.00 | 0.00 | 0.00 | 64 | 1011.3 |
| 20260505083108 | 15 | 219 | 4.8 | 14.5 | 0.00 | 0.00 | 0.00 | 64 | 1011.2 |
| 20260505081554 | 15 | 200 | 3.2 | 20.9 | 0.00 | 0.00 | 0.00 | 65 | 1011.1 |
| 20260505080100 | 16 | 279 | 1.6 | 11.3 | 0.00 | 0.00 | 0.00 | 65 | 1011.1 |
| 20260505074550 | 16 | 158 | 3.2 | 9.7 | 0.00 | 0.00 | 0.00 | 65 | 1011.0 |
| 20260505073057 | 15 | 178 | 3.2 | 11.3 | 0.00 | 0.00 | 0.00 | 66 | 1010.9 |
| 20260505071549 | 15 | 144 | 1.6 | 14.5 | 0.00 | 0.00 | 0.00 | 66 | 1010.9 |
| 20260505070050 | 15 | 212 | 3.2 | 8.0 | 0.00 | 0.00 | 0.00 | 68 | 1010.8 |
| 20260505064614 | 15 | 155 | 1.6 | 8.0 | 0.00 | 0.00 | 0.00 | 69 | 1010.7 |
| 20260505063045 | 15 | 169 | 3.2 | 6.4 | 0.00 | 0.00 | 0.00 | 69 | 1010.8 |
| 20260505061544 | 13 | 128 | 3.2 | 6.4 | 0.00 | 0.00 | 0.00 | 74 | 1011.0 |
| 20260505060042 | 13 | 133 | 3.2 | 6.4 | 0.00 | 0.00 | 0.00 | 73 | 1011.0 |
| 20260505054547 | 14 | 133 | 1.6 | 4.8 | 0.00 | 0.00 | 0.00 | 71 | 1010.9 |
| 20260505053036 | 15 | 196 | 0.0 | 3.2 | 0.00 | 0.00 | 0.00 | 70 | 1010.8 |
| 20260505051533 | 16 | 196 | 0.0 | 4.8 | 0.00 | 0.00 | 0.00 | 66 | 1010.9 |
| 20260505041531 | 17 | 216 | 1.6 | 8.0 | 0.00 | 0.00 | 0.00 | 59 | 1011.1 |
| 20260505040031 | 17 | 180 | 3.2 | 12.9 | 0.00 | 0.00 | 0.00 | 58 | 1011.0 |
| 20260505034533 | 18 | 237 | 4.8 | 16.1 | 0.00 | 0.00 | 0.00 | 56 | 1010.9 |
| 20260505033030 | 18 | 175 | 1.6 | 14.5 | 0.00 | 0.00 | 0.00 | 55 | 1010.9 |
| 20260505031527 | 18 | 198 | 3.2 | 17.7 | 0.00 | 0.00 | 0.00 | 54 | 1011.0 |
| 20260505030041 | 18 | 183 | 3.2 | 12.9 | 0.00 | 0.00 | 0.00 | 53 | 1011.0 |
| 20260505024526 | 18 | 201 | 1.6 | 12.9 | 0.00 | 0.00 | 0.00 | 52 | 1010.9 |
| 20260505023027 | 19 | 184 | 3.2 | 11.3 | 0.00 | 0.00 | 0.00 | 49 | 1010.9 |
| 20260505021525 | 19 | 246 | 1.6 | 12.9 | 0.00 | 0.00 | 0.00 | 49 | 1010.9 |
| 20260505020024 | 20 | 190 | 1.6 | 8.0 | 0.00 | 0.00 | 0.00 | 48 | 1010.8 |